This demonstration page uses our WeatherBlox Daily Observations layout. Learn more.

Left ArrowRight Arrow

31.84235, -102.49876

Hourly Observations for May 6, 2015

Temp ( °F °C ) Dew Point ( °F °C ) Humidity (%) Winds ( mph kmh ) Pressure ( in mb ) Visibility ( mi km ) Precip ( " mm )
12:53 am 00:53 Clear 66 18.9 60 15.6 81 81 S 7 11 29.80 1009 9 14 0.00 0.00
1:53 am 01:53 Clear 65 18.3 60 15.6 84 84 S 8 13 29.79 1009 9 14 0.00 0.00
2:17 am 02:17 Mostly Cloudy 65 18.3 60 15.6 84 84 SSW 6 9 29.80 1009 8 13 0.00 0.00
2:53 am 02:53 Cloudy 66 18.9 61 16.1 84 84 S 7 11 29.78 1009 8 13 0.00 0.00
3:53 am 03:53 Mostly Cloudy 66 18.9 61 16.1 84 84 S 9 15 29.76 1008 8 13 0.00 0.00
4:45 am 04:45 Mostly Cloudy 66 18.9 61 16.1 84 84 S 8 13 29.77 1008 7 11 0.00 0.00
4:53 am 04:53 Mostly Cloudy 66 18.9 62 16.7 87 87 S 9 15 29.76 1008 7 11 0.00 0.00
5:53 am 05:53 Cloudy 67 19.4 62 16.7 84 84 S 17 28 29.76 1008 7 11 0.00 0.00
6:53 am 06:53 Cloudy with Haze 67 19.4 62 16.7 84 84 SSW 16 26 29.77 1008 6 10 0.00 0.00
7:53 am 07:53 Cloudy with Haze 68 20 62 16.7 81 81 SSW 14 22 29.79 1009 5 8 0.00 0.00
8:53 am 08:53 Cloudy with Haze 70 21.1 63 17.2 79 79 SSW 14 22 29.80 1009 5 8 0.00 0.00
9:44 am 09:44 Hazy 71 21.7 62 16.7 73 73 SSW 17 28 29.80 1009 6 10 0.00 0.00
9:53 am 09:53 Hazy 72 22.2 62 16.7 71 71 SSW 17 28 29.81 1010 6 10 0.00 0.00
10:53 am 10:53 Sunny 75 23.9 61 16.1 62 62 SSW 14 22 29.81 1010 8 13 0.00 0.00
11:53 am 11:53 Sunny 79 26.1 58 14.4 49 49 SSW 14 22 29.80 1009 9 14 0.00 0.00
12:53 pm 12:53 Sunny 81 27.2 50 10 34 34 SSW 10 17 29.78 1008 10 16 0.00 0.00
1:53 pm 13:53 Sunny 84 28.9 45 7.2 25 25 SW 13 20 29.75 1008 10 16 0.00 0.00
2:53 pm 14:53 Sunny 84 28.9 44 6.7 25 25 undefined N/A 29.73 1007 10 16 0.00 0.00
3:53 pm 15:53 Mostly Sunny 86 30 48 8.9 27 27 S 17 28 29.70 1006 10 16 0.00 0.00
4:53 pm 16:53 Mostly Sunny 86 30 48 8.9 27 27 SSW 14 22 29.67 1005 10 16 0.00 0.00
5:53 pm 17:53 Partly Cloudy 87 30.6 48 8.9 26 26 SSW 14 22 29.64 1004 10 16 0.00 0.00
6:53 pm 18:53 Mostly Sunny 85 29.4 48 8.9 28 28 S 8 13 29.63 1004 10 16 0.00 0.00
7:53 pm 19:53 Sunny 79 26.1 60 15.6 52 52 S 21 33 29.65 1004 9 14 0.00 0.00
8:53 pm 20:53 Clear 74 23.3 57 13.9 56 56 SSE 17 28 29.68 1005 10 16 0.00 0.00
9:53 pm 21:53 Clear 71 21.7 57 13.9 61 61 S 16 26 29.69 1005 10 16 0.00 0.00
10:53 pm 22:53 Clear 70 21.1 58 14.4 66 66 S 16 26 29.70 1006 10 16 0.00 0.00
11:53 pm 23:53 Clear 70 21.1 62 16.7 76 76 S 16 26 29.70 1006 8 13 0.00 0.00

Powered by AerisWeather